Home   Weather   Örebro   Past weeks

Flag for Sweden Past Weather in Örebro, Sweden — Yesterday and Last 2 Weeks

Now
52 °F

Cool.


Feels Like: 49 °F
Forecast: 49 / 65 °F
Wind: 8 mph from Southwest

Location: Orebro Private

Current Time: Sep 25, 2016 at 2:17:54 AM

Latest Report: Sep 25, 2016 at 1:50 AM


Visibility: N/A

Pressure: 30.12 "Hg

Humidity: 88%

Dew Point: 48 °F

Location of ÖrebroLocation

Past Weather in Örebro — Graph

°F

Örebro Temperature Yesterday

Maximum temperature yesterday: 61 °F (at 1:50 PM)
Minimum temperature yesterday: 43 °F (at 3:50 AM)
Average temperature yesterday: 52 °F

High & Low Weather Summary for the Past Weeks

 TemperatureHumidityPressure
High77 °F (Sep 13, 2:20 PM)94% (Sep 10, 6:20 AM)30.24 "Hg (Sep 10, 6:20 AM)
Low43 °F (Sep 17, 4:50 AM)40% (Sep 12, 3:20 PM)29.83 "Hg (Sep 11, 9:50 AM)
Average58 °F77%30.12 "Hg
* Reported Sep 10 1:20 AM — Sep 25 1:20 AM, Örebro, Weather by CustomWeather, © 2016

Note: Actual official high and low records may vary slightly from our data, if they occured in-between our weather recording intervals... More about our weather records

Advertising

Örebro Weather History for the Previous 24 Hours

Scroll right to see more
 ConditionsComfort  
Time TempWeatherWind HumidityBarometerVisibility
1:20 AM
Sun, Sep 25
52 °FCool.6 mph88%30.12 "HgN/A
12:50 AM48 °FCool.3 mph87%30.12 "HgN/A
12:20 AM48 °FCool.5 mph87%30.12 "HgN/A
11:50 PM
Sat, Sep 24
50 °FCool.5 mph94%30.12 "Hg4 mi
11:20 PM46 °FCool.5 mph87%30.12 "HgN/A
10:50 PM48 °FCool.3 mph87%30.12 "Hg1 mi
10:20 PM46 °FCool.3 mph87%30.12 "HgN/A
9:50 PM46 °FCool.3 mph87%30.12 "HgN/A
9:20 PM50 °FClear.5 mph82%30.12 "Hg10 mi
8:50 PM50 °FClear.6 mph82%30.12 "Hg10 mi
8:20 PM50 °FClear.5 mph82%30.12 "Hg10 mi
7:50 PM52 °FClear.6 mph82%30.12 "Hg10 mi
7:20 PM52 °FClear.5 mph82%30.12 "Hg10 mi
6:50 PM57 °FSunny.3 mph67%30.12 "Hg10 mi
6:20 PM59 °FRefreshingly cool.5 mph59%30.12 "HgN/A
5:50 PM59 °FRefreshingly cool.6 mph59%30.12 "HgN/A
5:20 PM61 °FRefreshingly cool.9 mph55%30.12 "HgN/A
4:50 PM59 °FRefreshingly cool.8 mph59%30.12 "HgN/A
4:20 PM61 °FPassing clouds.9 mph59%30.12 "HgN/A
3:50 PM61 °FRefreshingly cool.9 mph59%30.12 "HgN/A
3:20 PM61 °FRefreshingly cool.10 mph59%30.12 "HgN/A
2:50 PM61 °FPassing clouds.8 mph63%30.09 "HgN/A
2:20 PM61 °FScattered clouds.10 mph63%30.09 "HgN/A
1:50 PM61 °FPartly sunny.8 mph68%30.09 "HgN/A
1:20 PM59 °FScattered clouds.10 mph68%30.09 "HgN/A
12:50 PM59 °FScattered clouds.9 mph72%30.09 "HgN/A
12:20 PM57 °FPassing clouds.8 mph77%30.09 "HgN/A
11:50 AM57 °FScattered clouds.10 mph77%30.09 "HgN/A
11:20 AM57 °FPartly sunny.8 mph77%30.09 "HgN/A
10:50 AM55 °FPartly sunny.8 mph88%30.09 "HgN/A
10:20 AM54 °FScattered clouds.6 mph88%30.09 "HgN/A
9:50 AM54 °FCool.8 mph94%30.09 "HgN/A
9:20 AM52 °FCool.1 mph94%30.07 "HgN/A
8:50 AM48 °FCool.No wind94%30.07 "HgN/A
8:20 AM46 °FPassing clouds.3 mph93%30.07 "Hg4 mi
7:50 AM46 °FScattered clouds.3 mph93%30.07 "Hg2 mi
7:20 AM43 °FFog.3 mph93%30.07 "Hg0 mi
6:50 AM43 °FQuite cool.3 mph93%30.04 "Hg0 mi
6:20 AM45 °FFog.3 mph93%30.04 "Hg0 mi
5:50 AM46 °FLow clouds.5 mph93%30.04 "HgN/A
5:20 AM45 °FLow clouds.3 mph93%30.04 "Hg4 mi
4:50 AM43 °FFog.3 mph93%30.01 "Hg0 mi
4:20 AM43 °FDense fog.5 mph87%30.01 "Hg0 mi
3:50 AM43 °FFog.2 mph93%30.01 "Hg0 mi
3:20 AM46 °FDense fog.5 mph93%29.98 "Hg0 mi
2:50 AM45 °FFog.6 mph93%29.98 "Hg0 mi
2:20 AM45 °FPassing clouds.5 mph93%29.98 "Hg0 mi
Weather by CustomWeather, © 2016

See weather overviewHow to use our weather pages